| time (UTC) | temp F | wind direction | speed MPH | gust MPH | rain 1hr in | rain 24hr in | rain mn in | humidity % | barometer mb |
| 20260504185016 | 66 | 314 | 4.0 | 10.0 | 0.00 | 0.00 | 0.00 | 33 | 1010.2 |
| 20260504184516 | 66 | 30 | 3.0 | 9.0 | 0.00 | 0.00 | 0.00 | 32 | 1010.2 |
| 20260504184036 | 67 | 219 | 2.0 | 7.0 | 0.00 | 0.00 | 0.00 | 32 | 1010.2 |
| 20260504183533 | 67 | 314 | 3.0 | 6.0 | 0.00 | 0.00 | 0.00 | 32 | 1010.2 |
| 20260504183028 | 66 | 217 | 2.0 | 6.0 | 0.00 | 0.00 | 0.00 | 34 | 1010.1 |
| 20260504182525 | 66 | 300 | 3.0 | 9.0 | 0.00 | 0.00 | 0.00 | 34 | 1010.3 |
| 20260504182022 | 66 | 259 | 3.0 | 9.0 | 0.00 | 0.00 | 0.00 | 33 | 1010.2 |
| 20260504181521 | 67 | 212 | 2.0 | 6.0 | 0.00 | 0.00 | 0.00 | 32 | 1010.3 |
| 20260504181020 | 67 | 228 | 2.0 | 8.0 | 0.00 | 0.00 | 0.00 | 34 | 1010.3 |
| 20260504180519 | 67 | 293 | 2.0 | 8.0 | 0.00 | 0.00 | 0.00 | 32 | 1010.4 |
| 20260504180014 | 66 | 64 | 1.0 | 5.0 | 0.00 | 0.00 | 0.00 | 34 | 1010.3 |
| 20260504175533 | 66 | 224 | 2.0 | 6.0 | 0.00 | 0.00 | 0.00 | 32 | 1010.5 |
| 20260504175052 | 65 | 283 | 1.0 | 7.0 | 0.00 | 0.00 | 0.00 | 35 | 1010.6 |
| 20260504174530 | 65 | 91 | 1.0 | 7.0 | 0.00 | 0.00 | 0.00 | 34 | 1010.6 |
| 20260504174032 | 65 | 277 | 1.0 | 6.0 | 0.00 | 0.00 | 0.00 | 34 | 1010.7 |
| 20260504173529 | 65 | 226 | 1.0 | 7.0 | 0.00 | 0.00 | 0.00 | 34 | 1010.8 |
| 20260504173028 | 65 | 203 | 2.0 | 7.0 | 0.00 | 0.00 | 0.00 | 36 | 1010.8 |
| 20260504172545 | 65 | 94 | 1.0 | 7.0 | 0.00 | 0.00 | 0.00 | 34 | 1010.7 |
| 20260504172022 | 65 | 23 | 3.0 | 8.0 | 0.00 | 0.00 | 0.00 | 34 | 1010.9 |
| 20260504171521 | 65 | 243 | 2.0 | 8.0 | 0.00 | 0.00 | 0.00 | 34 | 1010.9 |
| 20260504171019 | 64 | 226 | 2.0 | 6.0 | 0.00 | 0.00 | 0.00 | 34 | 1011.0 |
| 20260504170516 | 64 | 286 | 2.0 | 8.0 | 0.00 | 0.00 | 0.00 | 34 | 1010.9 |
| 20260504151041 | 59 | 225 | 4.0 | 9.0 | 0.00 | 0.00 | 0.00 | 38 | 1012.3 |
| 20260504150517 | 59 | 329 | 2.0 | 8.0 | 0.00 | 0.00 | 0.00 | 38 | 1012.3 |
| 20260504141027 | 55 | 257 | 2.0 | 9.0 | 0.00 | 0.00 | 0.00 | 42 | 1012.6 |
| 20260504140525 | 55 | 321 | 2.0 | 7.0 | 0.00 | 0.00 | 0.00 | 42 | 1012.4 |
| 20260504130513 | 53 | 294 | 1.0 | 7.0 | 0.00 | 0.00 | 0.00 | 44 | 1012.9 |
| 20260504110519 | 47 | 263 | 1.0 | 5.0 | 0.00 | 0.00 | 0.00 | 50 | 1012.9 |
| 20260504100536 | 46 | 257 | 1.0 | 5.0 | 0.00 | 0.00 | 0.00 | 52 | 1012.6 |
| 20260504081515 | 46 | 243 | 2.0 | 7.0 | 0.00 | 0.00 | 0.00 | 53 | 1012.9 |
| 20260504081014 | 46 | 252 | 1.0 | 5.0 | 0.00 | 0.00 | 0.00 | 53 | 1012.9 |
| 20260504080535 | 46 | 259 | 2.0 | 5.0 | 0.00 | 0.00 | 0.00 | 53 | 1012.9 |
| 20260504050544 | 46 | 246 | 0.0 | 2.0 | 0.00 | 0.00 | 0.00 | 53 | 1012.7 |
| 20260504050016 | 46 | 252 | 0.0 | 2.0 | 0.00 | 0.00 | 0.00 | 54 | 1012.6 |
| 20260504045530 | 46 | 263 | 0.0 | 2.0 | 0.00 | 0.00 | 0.00 | 53 | 1012.6 |
| 20260504045026 | 46 | 238 | 0.0 | 2.0 | 0.00 | 0.00 | 0.00 | 54 | 1012.6 |
| 20260504044523 | 46 | 245 | 0.0 | 2.0 | 0.00 | 0.00 | 0.00 | 53 | 1012.6 |
| 20260504044020 | 46 | 245 | 0.0 | 3.0 | 0.00 | 0.00 | 0.00 | 53 | 1012.5 |
| 20260504043539 | 46 | 297 | 0.0 | 3.0 | 0.00 | 0.00 | 0.00 | 53 | 1012.5 |
| 20260504043017 | 46 | 248 | 1.0 | 3.0 | 0.00 | 0.00 | 0.00 | 53 | 1012.5 |
| 20260504042515 | 45 | 239 | 1.0 | 3.0 | 0.00 | 0.00 | 0.00 | 53 | 1012.5 |
| 20260504042014 | 45 | 250 | 0.0 | 2.0 | 0.00 | 0.00 | 0.00 | 53 | 1012.5 |
| 20260504041533 | 45 | 240 | 0.0 | 2.0 | 0.00 | 0.00 | 0.00 | 53 | 1012.4 |
| 20260504041029 | 45 | 250 | 0.0 | 3.0 | 0.00 | 0.00 | 0.00 | 53 | 1012.4 |
| 20260504040528 | 45 | 255 | 0.0 | 2.0 | 0.00 | 0.00 | 0.00 | 53 | 1012.3 |
| 20260504040023 | 46 | 242 | 0.0 | 2.0 | 0.00 | 0.00 | 0.00 | 53 | 1012.3 |
| 20260504035515 | 46 | 263 | 1.0 | 2.0 | 0.00 | 0.00 | 0.00 | 53 | 1012.3 |
| 20260504035013 | 46 | 266 | 0.0 | 1.0 | 0.00 | 0.00 | 0.00 | 52 | 1012.3 |
| 20260504034530 | 46 | 267 | 0.0 | 3.0 | 0.00 | 0.00 | 0.00 | 52 | 1012.3 |
| 20260504034027 | 46 | 266 | 0.0 | 3.0 | 0.00 | 0.00 | 0.00 | 52 | 1012.2 |
| 20260504033524 | 46 | 233 | 0.0 | 1.0 | 0.00 | 0.00 | 0.00 | 52 | 1012.2 |
| 20260504033021 | 46 | 235 | 0.0 | 2.0 | 0.00 | 0.00 | 0.00 | 52 | 1012.2 |
| 20260504032518 | 46 | 290 | 0.0 | 2.0 | 0.00 | 0.00 | 0.00 | 52 | 1012.3 |
| 20260504032015 | 46 | 262 | 0.0 | 2.0 | 0.00 | 0.00 | 0.00 | 52 | 1012.3 |
| 20260504031532 | 46 | 245 | 0.0 | 2.0 | 0.00 | 0.00 | 0.00 | 52 | 1012.3 |
| 20260504031046 | 46 | 255 | 0.0 | 2.0 | 0.00 | 0.00 | 0.00 | 52 | 1012.3 |
| 20260504030524 | 45 | 262 | 0.0 | 1.0 | 0.00 | 0.00 | 0.00 | 53 | 1012.3 |
| 20260504030020 | 45 | 215 | 0.0 | 1.0 | 0.00 | 0.00 | 0.00 | 53 | 1012.3 |
| 20260504025521 | 45 | 266 | 0.0 | 0.0 | 0.00 | 0.00 | 0.00 | 52 | 1012.4 |
| 20260504025020 | 45 | 266 | 0.0 | 0.0 | 0.00 | 0.00 | 0.00 | 52 | 1012.3 |
| 20260504024520 | 45 | 266 | 0.0 | 1.0 | 0.00 | 0.00 | 0.00 | 52 | 1012.3 |
| 20260504024018 | 45 | 267 | 0.0 | 1.0 | 0.00 | 0.00 | 0.00 | 51 | 1012.4 |
| 20260504023518 | 45 | 276 | 0.0 | 1.0 | 0.00 | 0.00 | 0.00 | 51 | 1012.3 |
| 20260504023017 | 45 | 276 | 0.0 | 0.0 | 0.00 | 0.00 | 0.00 | 52 | 1012.4 |
| 20260504022533 | 46 | 276 | 0.0 | 0.0 | 0.00 | 0.00 | 0.00 | 52 | 1012.5 |
| 20260504022031 | 46 | 276 | 0.0 | 1.0 | 0.00 | 0.00 | 0.00 | 51 | 1012.4 |
| 20260504021550 | 46 | 276 | 0.0 | 2.0 | 0.00 | 0.00 | 0.00 | 50 | 1012.4 |
| 20260504021029 | 46 | 277 | 0.0 | 2.0 | 0.00 | 0.00 | 0.00 | 50 | 1012.5 |
| 20260504020528 | 46 | 259 | 0.0 | 2.0 | 0.00 | 0.00 | 0.00 | 51 | 1012.4 |
| 20260504020043 | 46 | 236 | 0.0 | 0.0 | 0.00 | 0.00 | 0.00 | 50 | 1012.4 |
| 20260504015520 | 46 | 235 | 0.0 | 0.0 | 0.00 | 0.00 | 0.00 | 49 | 1012.4 |
| 20260504015020 | 46 | 236 | 0.0 | 0.0 | 0.00 | 0.00 | 0.00 | 50 | 1012.4 |
| 20260504014519 | 46 | 267 | 0.0 | 0.0 | 0.00 | 0.00 | 0.00 | 50 | 1012.3 |
| 20260504014017 | 46 | 271 | 0.0 | 0.0 | 0.00 | 0.00 | 0.00 | 51 | 1012.3 |
| 20260504013536 | 46 | 271 | 0.0 | 0.0 | 0.00 | 0.00 | 0.00 | 52 | 1012.2 |
| 20260504013015 | 46 | 271 | 0.0 | 1.0 | 0.00 | 0.00 | 0.00 | 50 | 1012.1 |
| 20260504012514 | 46 | 271 | 0.0 | 1.0 | 0.00 | 0.00 | 0.00 | 51 | 1012.1 |
| 20260504012013 | 46 | 248 | 0.0 | 0.0 | 0.00 | 0.00 | 0.00 | 50 | 1012.1 |
| 20260504011532 | 47 | 248 | 0.0 | 0.0 | 0.00 | 0.00 | 0.00 | 51 | 1012.0 |
| 20260504011052 | 47 | 248 | 0.0 | 0.0 | 0.00 | 0.00 | 0.00 | 51 | 1012.0 |
| 20260504010530 | 47 | 248 | 0.0 | 0.0 | 0.00 | 0.00 | 0.00 | 51 | 1012.0 |
| 20260504010023 | 47 | 248 | 0.0 | 0.0 | 0.00 | 0.00 | 0.00 | 50 | 1012.0 |
| 20260504005522 | 47 | 248 | 0.0 | 0.0 | 0.00 | 0.00 | 0.00 | 48 | 1011.9 |
| 20260504005021 | 48 | 248 | 0.0 | 0.0 | 0.00 | 0.00 | 0.00 | 47 | 1011.9 |
| 20260504004520 | 48 | 248 | 0.0 | 0.0 | 0.00 | 0.00 | 0.00 | 47 | 1011.9 |
| 20260504004019 | 48 | 248 | 0.0 | 0.0 | 0.00 | 0.00 | 0.00 | 47 | 1011.8 |
| 20260504003518 | 48 | 248 | 0.0 | 0.0 | 0.00 | 0.00 | 0.00 | 46 | 1011.8 |
| 20260504003018 | 48 | 256 | 0.0 | 0.0 | 0.00 | 0.00 | 0.00 | 46 | 1011.7 |
| 20260504002517 | 49 | 256 | 0.0 | 0.0 | 0.00 | 0.00 | 0.00 | 45 | 1011.6 |
| 20260504002018 | 49 | 256 | 0.0 | 0.0 | 0.00 | 0.00 | 0.00 | 45 | 1011.6 |
| 20260504001519 | 49 | 256 | 0.0 | 0.0 | 0.00 | 0.00 | 0.00 | 45 | 1011.5 |
| 20260504001020 | 49 | 262 | 0.0 | 0.0 | 0.00 | 0.00 | 0.00 | 45 | 1011.5 |
| 20260504000517 | 50 | 262 | 0.0 | 0.0 | 0.00 | 0.00 | 0.00 | 45 | 1011.5 |
| 20260504000014 | 50 | 260 | 0.0 | 1.0 | 0.00 | 0.00 | 0.00 | 44 | 1011.4 |
| 20260503235514 | 50 | 262 | 0.0 | 1.0 | 0.00 | 0.00 | 0.00 | 44 | 1011.4 |
| 20260503235014 | 50 | 260 | 0.0 | 1.0 | 0.00 | 0.00 | 0.00 | 43 | 1011.3 |
| 20260503234533 | 51 | 255 | 0.0 | 2.0 | 0.00 | 0.00 | 0.00 | 42 | 1011.2 |
| 20260503234032 | 51 | 278 | 0.0 | 2.0 | 0.00 | 0.00 | 0.00 | 42 | 1011.3 |
| 20260503233530 | 51 | 273 | 0.0 | 3.0 | 0.00 | 0.00 | 0.00 | 41 | 1011.2 |
| 20260503233029 | 52 | 271 | 0.0 | 6.0 | 0.00 | 0.00 | 0.00 | 41 | 1011.2 |
| 20260503232548 | 52 | 217 | 2.0 | 5.0 | 0.00 | 0.00 | 0.00 | 40 | 1011.2 |
| 20260503232026 | 52 | 266 | 0.0 | 5.0 | 0.00 | 0.00 | 0.00 | 40 | 1011.2 |
| 20260503231524 | 52 | 273 | 1.0 | 5.0 | 0.00 | 0.00 | 0.00 | 40 | 1011.2 |
| 20260503231021 | 52 | 300 | 0.0 | 4.0 | 0.00 | 0.00 | 0.00 | 40 | 1011.2 |
| 20260503230516 | 52 | 307 | 1.0 | 6.0 | 0.00 | 0.00 | 0.00 | 40 | 1011.1 |
| 20260503230029 | 52 | 29 | 2.0 | 6.0 | 0.00 | 0.00 | 0.00 | 39 | 1011.1 |
| 20260503225526 | 52 | 222 | 1.0 | 6.0 | 0.00 | 0.00 | 0.00 | 39 | 1011.1 |
| 20260503225023 | 53 | 283 | 1.0 | 6.0 | 0.00 | 0.00 | 0.00 | 39 | 1011.2 |
| 20260503224540 | 53 | 238 | 3.0 | 6.0 | 0.00 | 0.00 | 0.00 | 38 | 1011.0 |
| 20260503224016 | 53 | 343 | 1.0 | 8.0 | 0.00 | 0.00 | 0.00 | 38 | 1011.1 |
| 20260503223513 | 53 | 269 | 3.0 | 6.0 | 0.00 | 0.00 | 0.00 | 38 | 1011.0 |
| 20260503223054 | 53 | 250 | 1.0 | 9.0 | 0.00 | 0.00 | 0.00 | 38 | 1011.0 |
| 20260503222550 | 53 | 248 | 3.0 | 9.0 | 0.00 | 0.00 | 0.00 | 38 | 1011.0 |
| 20260503222026 | 53 | 284 | 3.0 | 7.0 | 0.00 | 0.00 | 0.00 | 37 | 1011.0 |
| 20260503221524 | 53 | 302 | 2.0 | 6.0 | 0.00 | 0.00 | 0.00 | 37 | 1011.0 |
| 20260503221022 | 53 | 294 | 1.0 | 6.0 | 0.00 | 0.00 | 0.00 | 38 | 1011.0 |
| 20260503220521 | 53 | 295 | 2.0 | 6.0 | 0.00 | 0.00 | 0.00 | 37 | 1011.0 |
| 20260503220017 | 52 | 278 | 3.0 | 7.0 | 0.00 | 0.00 | 0.00 | 37 | 1011.1 |
| 20260503215536 | 52 | 273 | 2.0 | 8.0 | 0.00 | 0.00 | 0.00 | 37 | 1011.0 |
| 20260503215014 | 52 | 191 | 3.0 | 9.0 | 0.00 | 0.00 | 0.00 | 36 | 1011.0 |
| 20260503214512 | 53 | 51 | 2.0 | 9.0 | 0.00 | 0.00 | 0.00 | 36 | 1011.0 |
| 20260503214012 | 53 | 328 | 4.0 | 8.0 | 0.00 | 0.00 | 0.00 | 36 | 1010.9 |
| 20260503213513 | 52 | 271 | 2.0 | 6.0 | 0.00 | 0.00 | 0.00 | 35 | 1010.8 |
| 20260503213031 | 52 | 37 | 2.0 | 6.0 | 0.00 | 0.00 | 0.00 | 36 | 1010.8 |
| 20260503212530 | 52 | 330 | 2.0 | 6.0 | 0.00 | 0.00 | 0.00 | 34 | 1010.8 |
| 20260503212030 | 53 | 307 | 2.0 | 6.0 | 0.00 | 0.00 | 0.00 | 34 | 1010.8 |
| 20260503211529 | 53 | 41 | 2.0 | 9.0 | 0.00 | 0.00 | 0.00 | 34 | 1010.6 |
| 20260503211028 | 53 | 353 | 3.0 | 9.0 | 0.00 | 0.00 | 0.00 | 33 | 1010.5 |
| 20260503210527 | 53 | 222 | 5.0 | 10.0 | 0.00 | 0.00 | 0.00 | 33 | 1010.5 |
| 20260503210024 | 53 | 295 | 3.0 | 10.0 | 0.00 | 0.00 | 0.00 | 33 | 1010.5 |
| 20260503205523 | 53 | 280 | 4.0 | 9.0 | 0.00 | 0.00 | 0.00 | 33 | 1010.6 |
| 20260503205116 | 53 | 64 | 5.0 | 9.0 | 0.00 | 0.00 | 0.00 | 33 | 1010.5 |
| 20260503204541 | 53 | 249 | 2.0 | 6.0 | 0.00 | 0.00 | 0.00 | 33 | 1010.6 |
| 20260503204019 | 53 | 198 | 1.0 | 5.0 | 0.00 | 0.00 | 0.00 | 33 | 1010.5 |
| 20260503203518 | 52 | 259 | 2.0 | 6.0 | 0.00 | 0.00 | 0.00 | 33 | 1010.7 |
| 20260503203038 | 53 | 307 | 3.0 | 7.0 | 0.00 | 0.00 | 0.00 | 32 | 1010.6 |
| 20260503202552 | 52 | 295 | 2.0 | 12.0 | 0.00 | 0.00 | 0.00 | 34 | 1010.7 |
| 20260503202046 | 52 | 271 | 4.0 | 12.0 | 0.00 | 0.00 | 0.00 | 33 | 1010.7 |
| 20260503201524 | 52 | 328 | 2.0 | 7.0 | 0.00 | 0.00 | 0.00 | 34 | 1010.7 |
| 20260503201044 | 52 | 54 | 3.0 | 9.0 | 0.00 | 0.00 | 0.00 | 33 | 1010.8 |
| 20260503200520 | 52 | 332 | 3.0 | 12.0 | 0.00 | 0.00 | 0.00 | 32 | 1010.8 |
| 20260503200053 | 52 | 239 | 5.0 | 9.0 | 0.00 | 0.00 | 0.00 | 33 | 1010.8 |
| 20260503195528 | 52 | 212 | 3.0 | 10.0 | 0.00 | 0.00 | 0.00 | 34 | 1010.8 |
| 20260503195024 | 52 | 229 | 3.0 | 13.0 | 0.00 | 0.00 | 0.00 | 34 | 1011.0 |
| 20260503194542 | 52 | 263 | 4.0 | 9.0 | 0.00 | 0.00 | 0.00 | 34 | 1010.9 |
| 20260503194018 | 51 | 242 | 4.0 | 10.0 | 0.00 | 0.00 | 0.00 | 34 | 1011.0 |
| 20260503193518 | 51 | 297 | 4.0 | 11.0 | 0.00 | 0.00 | 0.00 | 34 | 1011.2 |
| 20260503193029 | 50 | 29 | 4.0 | 13.0 | 0.00 | 0.00 | 0.00 | 35 | 1011.2 |
| 20260503192528 | 50 | 115 | 4.0 | 13.0 | 0.00 | 0.00 | 0.00 | 34 | 1011.2 |
| 20260503192028 | 51 | 311 | 4.0 | 9.0 | 0.00 | 0.00 | 0.00 | 35 | 1011.5 |
| 20260503191526 | 50 | 27 | 2.0 | 10.0 | 0.00 | 0.00 | 0.00 | 35 | 1011.1 |
| 20260503191026 | 50 | 318 | 3.0 | 10.0 | 0.00 | 0.00 | 0.00 | 35 | 1011.4 |
| 20260503190524 | 50 | 249 | 3.0 | 9.0 | 0.00 | 0.00 | 0.00 | 36 | 1011.6 |
| 20260503190019 | 49 | 26 | 2.0 | 8.0 | 0.00 | 0.00 | 0.00 | 36 | 1011.4 |
| 20260503185519 | 49 | 52 | 3.0 | 8.0 | 0.00 | 0.00 | 0.00 | 36 | 1011.4 |